Home   Weather   Kitchener   Past weeks
Flag for Canada

Past Weather in Kitchener, Ontario, Canada — November 2017

Now
30 °F

Partly sunny.


Feels Like: 24 °F
Forecast: 31 / 37 °F
Wind: 6 mph from North

Location: Waterloo Well

Current Time: Dec 15, 2018 at 9:35:25 am

Latest Report: Dec 15, 2018 at 8:00 am


Visibility: 9 mi

Pressure: 30.24 "Hg

Humidity: 100%

Dew Point: 30 °F

Location of KitchenerLocation

November 2017 Weather in Kitchener — Graph

°F

High & Low Weather Summary for November 2017

 TemperatureHumidityPressure
High61 °F (Nov 5, 3:13 pm)100% (Nov 1, 5:56 pm)30.65 "Hg (Nov 1, 5:56 pm)
Low9 °F (Nov 11, 4:00 am)41% (Nov 28, 9:00 pm)29.17 "Hg (Nov 18, 9:37 pm)
Average37 °F84%30.02 "Hg
* Reported Nov 1 12:00 am — Nov 30 11:40 pm, Kitchener. Weather by CustomWeather, © 2018

Note: Actual official high and low records may vary slightly from our data, if they occured in-between our weather recording intervals... More about our weather records

Advertising

Kitchener Weather History for November 1, 2017

Scroll right to see more
 ConditionsComfort  
Time TempWeatherWind HumidityBarometerVisibility
12:00 am
Wed, Nov 1
37 °FOvercast.7 mph75%30.15 "Hg9 mi
1:00 am37 °FOvercast.5 mph75%30.16 "Hg9 mi
2:00 am36 °FOvercast.6 mph81%30.16 "Hg9 mi
3:00 am36 °FOvercast.3 mph81%30.15 "Hg9 mi
4:00 am36 °FOvercast.5 mph81%30.16 "Hg9 mi
5:00 am36 °FMostly cloudy.5 mph81%30.17 "Hg9 mi
6:00 am36 °FOvercast.5 mph81%30.17 "Hg9 mi
7:00 am34 °FMostly cloudy.2 mph87%30.17 "Hg9 mi
8:00 am36 °FOvercast.6 mph87%30.19 "Hg9 mi
9:00 am36 °FOvercast.5 mph87%30.20 "Hg9 mi
10:00 am37 °FOvercast.2 mph75%30.19 "Hg9 mi
11:00 am39 °FScattered clouds.7 mph61%30.19 "Hg9 mi
12:00 pm41 °FOvercast.8 mph66%30.17 "Hg9 mi
1:00 pm41 °FMostly cloudy.7 mph66%30.15 "Hg9 mi
2:00 pm43 °FCloudy.6 mph66%30.13 "Hg9 mi
2:51 pm43 °FLight rain. Cloudy.3 mph66%30.13 "Hg9 mi
3:23 pm41 °FLight rain. Mostly cloudy.7 mph87%30.12 "Hg9 mi
3:35 pm41 °FLight rain. Mostly cloudy.7 mph81%30.12 "Hg9 mi
4:10 pm39 °FLight rain. Mostly cloudy.6 mph87%30.13 "Hg9 mi
4:23 pm39 °FLight rain. More clouds than sun.7 mph87%30.12 "Hg9 mi
4:34 pm39 °FLight rain. More clouds than sun.8 mph93%30.12 "Hg9 mi
5:04 pm39 °FLight rain. Fog.8 mph93%30.11 "Hg5 mi
5:14 pm39 °FLight rain. Fog.8 mph87%30.12 "Hg6 mi
5:56 pm37 °FLight rain. Fog.8 mph100%30.11 "Hg3 mi
6:04 pm37 °FLight rain. Fog.8 mph100%30.11 "Hg4 mi
6:22 pm37 °FLight rain. Fog.8 mph100%30.11 "Hg6 mi
6:42 pm37 °FLight rain. Mostly cloudy.7 mph100%30.11 "Hg9 mi
7:00 pm37 °FOvercast.8 mph100%30.11 "Hg9 mi
8:00 pm39 °FOvercast.9 mph93%30.09 "Hg9 mi
9:22 pm39 °FFog.8 mph100%30.10 "Hg5 mi
9:35 pm39 °FFog.8 mph100%30.10 "Hg5 mi
10:00 pm39 °FFog.9 mph100%30.09 "Hg3 mi
11:00 pm41 °FFog.9 mph93%30.08 "Hg3 mi
Weather by CustomWeather, © 2018

See weather overview